| time (UTC) | temp C | wind direction | speed KPH | gust KPH | rain 1hr cm | rain 24hr cm | rain mn cm | humidity % | barometer mb |
| 20260506030116 | 14 | 155 | 1.6 | 8.0 | 0.00 | 0.18 | 0.18 | 76 | 1011.0 |
| 20260506024600 | 14 | 159 | 1.6 | 8.0 | 0.00 | 0.18 | 0.18 | 76 | 1010.9 |
| 20260506023059 | 14 | 233 | 1.6 | 14.5 | 0.00 | 0.18 | 0.18 | 75 | 1010.9 |
| 20260506021603 | 14 | 224 | 1.6 | 6.4 | 0.00 | 0.18 | 0.18 | 75 | 1010.9 |
| 20260506020058 | 15 | 134 | 1.6 | 9.7 | 0.00 | 0.18 | 0.18 | 75 | 1010.9 |
| 20260506014607 | 15 | 224 | 1.6 | 8.0 | 0.00 | 0.18 | 0.18 | 75 | 1010.8 |
| 20260506013056 | 15 | 110 | 1.6 | 6.4 | 0.00 | 0.18 | 0.18 | 75 | 1010.7 |
| 20260506011556 | 15 | 154 | 1.6 | 14.5 | 0.00 | 0.18 | 0.18 | 75 | 1010.6 |
| 20260506010104 | 14 | 129 | 1.6 | 6.4 | 0.00 | 0.18 | 0.18 | 76 | 1010.5 |
| 20260506004555 | 14 | 154 | 3.2 | 11.3 | 0.00 | 0.18 | 0.18 | 76 | 1010.5 |
| 20260506003054 | 14 | 123 | 0.0 | 4.8 | 0.00 | 0.18 | 0.18 | 76 | 1010.3 |
| 20260506001558 | 15 | 146 | 1.6 | 9.7 | 0.00 | 0.18 | 0.18 | 75 | 1010.0 |
| 20260506000058 | 15 | 238 | 1.6 | 8.0 | 0.00 | 0.18 | 0.18 | 74 | 1009.6 |
| 20260505234552 | 15 | 115 | 0.0 | 6.4 | 0.00 | 0.18 | 0.18 | 73 | 1009.7 |
| 20260505233103 | 15 | 148 | 1.6 | 9.7 | 0.00 | 0.18 | 0.18 | 73 | 1009.2 |
| 20260505231552 | 15 | 124 | 1.6 | 6.4 | 0.00 | 0.18 | 0.18 | 72 | 1009.0 |
| 20260505230052 | 16 | 61 | 3.2 | 12.9 | 0.00 | 0.18 | 0.18 | 72 | 1008.6 |
| 20260505224650 | 16 | 175 | 0.0 | 6.4 | 0.00 | 0.18 | 0.18 | 72 | 1008.6 |
| 20260505223051 | 16 | 184 | 0.0 | 8.0 | 0.00 | 0.18 | 0.18 | 70 | 1008.6 |
| 20260505220048 | 17 | 11 | 3.2 | 8.0 | 0.00 | 0.18 | 0.18 | 67 | 1008.5 |
| 20260505214547 | 18 | 158 | 4.8 | 9.7 | 0.00 | 0.18 | 0.18 | 65 | 1008.3 |
| 20260505213048 | 18 | 163 | 1.6 | 12.9 | 0.00 | 0.18 | 0.18 | 64 | 1008.2 |
| 20260505211547 | 19 | 163 | 3.2 | 9.7 | 0.00 | 0.18 | 0.18 | 63 | 1008.2 |
| 20260505210045 | 19 | 213 | 1.6 | 16.1 | 0.00 | 0.18 | 0.18 | 62 | 1007.9 |
| 20260505204544 | 20 | 138 | 1.6 | 9.7 | 0.00 | 0.18 | 0.18 | 61 | 1008.1 |
| 20260505203049 | 20 | 144 | 3.2 | 17.7 | 0.00 | 0.18 | 0.18 | 59 | 1008.2 |
| 20260505201546 | 21 | 167 | 4.8 | 9.7 | 0.00 | 0.18 | 0.18 | 58 | 1008.2 |
| 20260505200041 | 21 | 163 | 3.2 | 14.5 | 0.00 | 0.18 | 0.18 | 57 | 1008.1 |
| 20260505194547 | 21 | 130 | 3.2 | 16.1 | 0.00 | 3.12 | 0.18 | 56 | 1008.2 |
| 20260505193100 | 22 | 242 | 3.2 | 14.5 | 0.00 | 3.12 | 0.18 | 56 | 1008.4 |
| 20260505191541 | 22 | 161 | 3.2 | 11.3 | 0.00 | 3.12 | 0.18 | 55 | 1008.2 |
| 20260505190041 | 22 | 171 | 4.8 | 12.9 | 0.00 | 3.12 | 0.18 | 55 | 1008.3 |
| 20260505184537 | 23 | 160 | 3.2 | 17.7 | 0.00 | 5.23 | 0.18 | 52 | 1008.3 |
| 20260505183035 | 23 | 117 | 3.2 | 12.9 | 0.00 | 5.23 | 0.18 | 53 | 1008.3 |
| 20260505181534 | 23 | 159 | 4.8 | 12.9 | 0.00 | 5.23 | 0.18 | 51 | 1008.6 |
| 20260505180037 | 23 | 149 | 6.4 | 12.9 | 0.00 | 5.23 | 0.18 | 52 | 1008.7 |
| 20260505174528 | 23 | 336 | 4.8 | 8.0 | 0.00 | 5.23 | 0.18 | 53 | 1008.9 |
| 20260505173026 | 23 | 292 | 3.2 | 16.1 | 0.00 | 5.23 | 0.18 | 55 | 1009.2 |
| 20260505171525 | 22 | 143 | 3.2 | 11.3 | 0.00 | 5.23 | 0.18 | 57 | 1009.1 |
| 20260505170024 | 22 | 121 | 3.2 | 8.0 | 0.00 | 5.23 | 0.18 | 58 | 1009.2 |
| 20260505164523 | 22 | 182 | 6.4 | 14.5 | 0.00 | 5.23 | 0.18 | 57 | 1009.5 |
| 20260505163019 | 23 | 271 | 1.6 | 11.3 | 0.00 | 5.23 | 0.18 | 59 | 1009.7 |
| 20260505161519 | 22 | 95 | 1.6 | 12.9 | 0.00 | 5.23 | 0.18 | 59 | 1009.7 |
| 20260505153018 | 22 | 209 | 1.6 | 8.0 | 0.00 | 5.23 | 0.18 | 60 | 1009.6 |
| 20260505151512 | 22 | 247 | 1.6 | 8.0 | 0.00 | 5.23 | 0.18 | 60 | 1009.6 |
| 20260505124536 | 15 | 131 | 1.6 | 8.0 | 0.00 | 5.05 | 0.00 | 79 | 1010.6 |
| 20260505123044 | 14 | 153 | 1.6 | 9.7 | 0.00 | 5.05 | 0.00 | 81 | 1010.7 |
| 20260505121529 | 13 | 321 | 1.6 | 8.0 | 0.00 | 5.05 | 0.00 | 83 | 1010.5 |
| 20260505120035 | 12 | 308 | 1.6 | 6.4 | 0.00 | 5.05 | 0.00 | 86 | 1010.4 |
| 20260505114519 | 11 | 155 | 0.0 | 8.0 | 0.00 | 5.05 | 0.00 | 90 | 1010.6 |
| 20260505113015 | 11 | 81 | 0.0 | 4.8 | 0.00 | 5.05 | 0.00 | 94 | 1010.5 |
| 20260505111523 | 10 | 93 | 0.0 | 3.2 | 0.00 | 5.05 | 0.00 | 96 | 1010.3 |
| 20260505101505 | 7 | 48 | 0.0 | 0.0 | 0.00 | 5.05 | 0.00 | 94 | 1010.2 |
| 20260505100004 | 7 | 48 | 0.0 | 0.0 | 0.00 | 5.05 | 0.00 | 93 | 1010.2 |
| 20260505094501 | 7 | 48 | 0.0 | 1.6 | 0.00 | 5.05 | 0.00 | 93 | 1010.2 |
| 20260505093101 | 7 | 48 | 0.0 | 0.0 | 0.00 | 5.05 | 0.00 | 93 | 1010.2 |
| 20260505091621 | 7 | 48 | 0.0 | 1.6 | 0.00 | 5.05 | 0.00 | 92 | 1010.3 |
| 20260505090122 | 7 | 48 | 0.0 | 0.0 | 0.00 | 5.05 | 0.00 | 93 | 1010.4 |
| 20260505084613 | 7 | 48 | 0.0 | 1.6 | 0.00 | 5.05 | 0.00 | 93 | 1010.4 |
| 20260505083107 | 7 | 47 | 0.0 | 0.0 | 0.00 | 5.05 | 0.00 | 92 | 1010.5 |
| 20260505081601 | 7 | 47 | 0.0 | 0.0 | 0.00 | 5.05 | 0.00 | 92 | 1010.5 |
| 20260505074550 | 7 | 47 | 0.0 | 0.0 | 0.00 | 5.05 | 0.00 | 92 | 1010.5 |
| 20260505073054 | 8 | 47 | 0.0 | 1.6 | 0.00 | 5.05 | 0.00 | 91 | 1010.6 |
| 20260505071558 | 8 | 47 | 0.0 | 0.0 | 0.00 | 5.05 | 0.00 | 91 | 1010.7 |
| 20260505070051 | 8 | 47 | 0.0 | 0.0 | 0.00 | 5.05 | 0.00 | 90 | 1010.6 |
| 20260505064544 | 8 | 47 | 0.0 | 3.2 | 0.00 | 5.05 | 0.00 | 90 | 1010.6 |
| 20260505063050 | 8 | 47 | 0.0 | 3.2 | 0.00 | 5.05 | 0.00 | 89 | 1010.8 |
| 20260505061541 | 8 | 46 | 0.0 | 1.6 | 0.00 | 5.05 | 0.00 | 88 | 1010.8 |
| 20260505060055 | 8 | 46 | 0.0 | 3.2 | 0.00 | 5.05 | 0.00 | 88 | 1010.8 |
| 20260505054537 | 9 | 42 | 0.0 | 1.6 | 0.00 | 5.05 | 0.00 | 87 | 1010.8 |
| 20260505053038 | 9 | 28 | 0.0 | 3.2 | 0.00 | 5.05 | 0.00 | 87 | 1010.8 |
| 20260505051535 | 9 | 90 | 0.0 | 1.6 | 0.00 | 5.05 | 0.00 | 86 | 1010.8 |
| 20260505041536 | 10 | 93 | 0.0 | 4.8 | 0.00 | 5.05 | 0.00 | 83 | 1011.0 |
| 20260505040027 | 10 | 101 | 0.0 | 3.2 | 0.00 | 5.05 | 0.00 | 81 | 1011.0 |
| 20260505034527 | 10 | 149 | 0.0 | 3.2 | 0.00 | 5.05 | 5.05 | 81 | 1011.0 |
| 20260505033026 | 10 | 130 | 0.0 | 4.8 | 0.00 | 5.05 | 5.05 | 80 | 1010.9 |
| 20260505031526 | 10 | 140 | 1.6 | 3.2 | 0.00 | 5.05 | 5.05 | 80 | 1010.9 |